Location: Musselshell
(46.5176°N, 108.0911°W)
Time: 09:41:58
(UTC+00:00)

SO-50 - Visible Passes

Search period start: 04 July 2022 00:00
Search period end: 14 July 2022 00:00
Orbit: 586 x 697 km, 64.6° (Epoch: 03 July)

Date Brightness Start Highest point End Pass type
(mag) Time Alt. Az. Time Alt. Az. Time Alt. Az.
04 Jul ? 06:24:43 41° SE 06:25:18 43° ESE 06:29:53 10° NE visible
04 Jul ? 08:02:15 14° WSW 08:05:51 33° NW 08:10:18 10° NNE visible
04 Jul ? 09:45:55 10° NW 09:47:47 12° NNW 09:49:39 10° N visible
05 Jul ? 05:10:20 13° ESE 05:10:20 13° ESE 05:12:19 10° ENE visible
05 Jul ? 06:47:52 38° SW 06:49:41 88° NW 06:54:35 10° NE visible
05 Jul ? 08:27:13 10° W 08:30:49 21° NNW 08:34:29 10° NNE visible
06 Jul ? 05:33:23 29° SE 05:34:01 30° ESE 05:38:13 10° NE visible
06 Jul ? 07:10:55 17° WSW 07:14:18 45° NW 07:19:00 10° NNE visible
06 Jul ? 08:53:27 10° NW 08:55:58 14° NNW 08:58:32 10° N visible
07 Jul ? 05:56:17 33° SSW 05:58:17 65° ESE 06:03:06 10° NE visible
07 Jul ? 07:35:09 10° W 07:39:08 26° NW 07:43:13 10° NNE visible
07 Jul ? 09:20:23 10° NNW 09:21:18 10° NNW 09:22:14 10° N visible
08 Jul ? 04:41:26 18° SE 04:42:48 21° ESE 04:46:21 10° ENE visible
08 Jul ? 06:18:55 15° SW 06:22:47 61° NW 06:27:37 10° NNE visible
08 Jul ? 08:01:07 10° WNW 08:04:13 17° NNW 08:07:21 10° NNE visible
09 Jul ? 05:03:45 18° S 05:06:57 44° ESE 05:11:34 10° NE visible
09 Jul ? 06:43:13 10° WSW 06:47:31 33° NW 06:51:57 10° NNE visible
09 Jul ? 08:27:39 10° NW 08:29:28 12° NNW 08:31:17 10° N visible
10 Jul ? 03:49:12 10° SE 03:51:37 14° ESE 03:54:05 10° ENE visible
10 Jul ? 05:26:36 10° SW 05:31:19 86° NW 05:36:14 10° NE visible
10 Jul ? 07:08:55 10° W 07:12:28 20° NNW 07:16:07 10° NNE visible
10 Jul ? 10:35:42 10° N 10:37:35 12° NNE 10:39:29 10° NE visible
11 Jul ? 04:11:33 10° S 04:15:39 31° ESE 04:19:53 10° NE visible
11 Jul ? 05:51:25 10° WSW 05:55:57 43° NW 06:00:38 10° NNE visible
11 Jul ? 07:35:10 10° NW 07:37:39 14° NNW 07:40:09 10° N visible
12 Jul ? 04:35:15 10° SSW 04:39:55 67° ESE 04:44:46 10° NE visible
12 Jul ? 06:16:49 10° W 06:20:48 25° NW 06:24:52 10° NNE visible
12 Jul ? 08:02:09 10° NNW 08:02:59 10° NNW 08:03:49 10° N visible
12 Jul ? 09:44:43 10° N 09:45:44 11° NNE 09:46:46 10° NNE visible
13 Jul ? 04:59:44 10° SW 05:04:25 60° NW 05:09:16 10° NNE visible
13 Jul ? 06:42:49 10° WNW 06:45:52 16° NNW 06:48:58 10° NNE visible
13 Jul ? 10:08:27 10° N 10:11:04 14° NNE 10:13:40 10° NE visible
